[[{"header":{"parameterUnit":"m.s-1","parameterCategory":1,"la1":30.2991,"la2":30.254,"lo1":-89.0895,"lo2":-89.0444,"dy":0.0017,"dx":0.0017,"nx":28,"ny":28,"refTime":"2023-11-11T03:00:00:Z","depth":0,"parameterNumber":2,"parameterNumberName":"U-component_of_WINDS"},"data":[0,0,0,0,0,0,0,0,0,0,0,0,0,0,0,0,0,0,0,0,0,0,0,0,0,0,0,0,0,0,0,0,0,0,0,0,0,0,0,0,0,0,0,0,0,0,0,0,0,0,0,0,0,0,0,0,0,0,-2.248,-2.2481,0,-2.2535,-2.2535,-2.2536,-2.2487,-2.2485,-2.2483,-2.2481,-2.2539,-2.2542,-2.2545,0,0,0,0,0,0,0,0,0,0,0,0,0,-2.2335,-2.2338,-2.248,-2.2481,-2.2481,-2.2534,-2.2535,-2.2536,-2.2488,-2.2485,-2.2483,-2.2481,-2.2538,-2.2542,-2.2546,0,0,0,0,0,0,0,0,0,0,0,0,0,-2.2395,-2.2339,-2.248,-2.2464,-2.2463,-2.2534,-2.2535,-2.2536,-2.2488,-2.2485,-2.2482,-2.2479,-2.2536,-2.2541,-2.2546,-2.2637,0,0,-2.2562,-2.2564,0,0,0,0,0,0,0,0,-2.2392,-2.24,-2.2465,-2.2465,-2.2464,-2.2501,-2.2505,-2.257,-2.2489,-2.2479,-2.2481,-2.2478,-2.2529,-2.2534,-2.2551,-2.264,-2.2642,-2.2562,-2.2565,-2.2567,-2.2569,0,0,0,0,0,0,0,-2.2388,-2.2398,-2.2502,-2.2466,-2.2466,-2.2454,-2.2459,-2.2517,-2.252,-2.2479,-2.2476,-2.2483,-2.2528,-2.2546,-2.2552,-2.2643,-2.2562,-2.2567,-2.257,-2.2572,-2.281,-2.2813,0,0,0,0,0,0,-2.2385,-2.2395,-2.25,-2.2503,-2.242,-2.2459,-2.2465,-2.2492,-2.2519,-2.252,-2.2485,-2.248,-2.2539,-2.2546,-2.2554,-2.2663,-2.2567,-2.2572,-2.2575,-2.2807,-2.2811,-2.2814,0,0,0,0,0,0,-2.2382,-2.2395,-2.2498,-2.2448,-2.246,-2.2465,-2.2496,-2.2495,-2.2513,-2.2524,-2.2524,-2.2504,-2.2537,-2.2547,-2.2617,-2.2664,-2.2574,-2.2579,-2.2803,-2.2808,-2.2813,-2.2882,0,0,0,0,0,0,-2.2378,-2.2394,-2.2428,-2.2449,-2.2463,-2.256,-2.2499,-2.2498,-2.2522,-2.2516,-2.2541,-2.2542,-2.2535,-2.261,-2.2622,-2.267,-2.2583,-2.2799,-2.2805,-2.2811,-2.2875,-2.2888,-2.29,0,0,0,0,0,-2.2373,-2.2446,-2.243,-2.2443,-2.2506,-2.2563,-2.2571,-2.2561,-2.2526,-2.2561,-2.2567,-2.2541,-2.2657,-2.2617,-2.2631,-2.2681,-2.2796,-2.2803,-2.2811,-2.287,-2.2886,-2.2899,0,0,0,0,0,0,-2.2431,-2.2448,-2.2431,-2.2513,-2.2537,-2.2554,-2.2598,-2.2578,-2.2613,-2.2606,-2.2592,-2.2598,-2.2673,-2.2683,-2.2639,-2.277,-2.2721,-2.2731,-2.2761,-2.2776,-2.2788,-2.2785,-2.2587,0,0,0,0,0,-2.2453,-2.2497,-2.251,-2.2581,-2.2593,-2.2594,-2.2618,-2.2608,-2.2633,-2.2643,-2.2654,-2.2679,-2.2721,-2.2749,-2.2788,-2.2876,-2.2881,-2.2917,-2.2929,-2.2939,-2.2949,-2.2997,-2.3014,-2.2839,-2.2839,-2.2838,0,0,-2.25,-2.2514,-2.2543,-2.2593,-2.261,-2.2657,-2.2603,-2.2654,-2.2689,-2.265,-2.2718,-2.2727,-2.2754,-2.2834,-2.2869,-2.2845,-2.2998,-2.2948,-2.2956,-2.2961,-2.3006,-2.3023,-2.3038,-2.2844,-2.2843,-2.2842,0,0,-2.2609,-2.2624,-2.2685,-2.2703,-2.273,-2.2729,-2.2744,-2.2765,-2.277,-2.2837,-2.2809,-2.285,-2.2922,-2.2943,-2.2963,-2.3079,-2.3057,-2.3092,-2.3157,-2.3204,-2.3218,-2.323,-2.3273,-2.3288,-2.3101,-2.3102,-2.3102,0,-2.2663,-2.2732,-2.2719,-2.2773,-2.2796,-2.2762,-2.2825,-2.2843,-2.2881,-2.2898,-2.287,-2.296,-2.2975,-2.306,-2.3089,-2.3105,-2.3122,-2.309,-2.3217,-2.3229,-2.324,-2.3281,-2.3297,-2.3106,-2.3105,-2.3105,-2.3104,0,-2.2799,-2.2847,-2.2893,-2.2931,-2.2958,-2.3016,-2.3012,-2.3042,-2.303,-2.3033,-2.3102,-2.3119,-2.3162,-2.318,-2.3169,-2.3264,-2.3248,-2.3218,-2.3169,-2.3261,-2.3299,-2.3315,-2.3112,-2.311,-2.3109,-2.3108,0,0,-2.2947,-2.2976,-2.2994,-2.3011,-2.3037,-2.3075,-2.3131,-2.3172,-2.3198,-2.3225,-2.3273,-2.3334,-2.3307,-2.333,-2.332,-2.3362,-2.3455,-2.3327,-2.3328,-2.3352,-2.3562,-2.3585,-2.3603,-2.3439,-2.3442,-2.3444,-2.356,0,-2.3058,-2.3156,-2.3146,-2.3239,-2.3284,-2.3253,-2.3302,-2.3324,-2.3328,-2.3367,-2.3371,-2.3415,-2.3375,-2.3389,-2.3428,-2.3435,-2.3497,-2.3426,-2.3485,-2.3487,-2.3481,-2.3623,-2.3648,-2.3756,-2.3575,-2.3577,-2.3579,0,-2.3202,-2.3234,-2.3332,-2.3352,-2.337,-2.3415,-2.3452,-2.3489,-2.3513,-2.3513,-2.3539,-2.3522,-2.3579,-2.3526,-2.3605,-2.3558,-2.3581,-2.3588,-2.3591,-2.3598,-2.354,-2.3635,-2.3791,-2.3808,-2.3602,-2.36,-2.3598,0,-2.3302,-2.337,-2.3438,-2.3453,-2.3478,-2.351,-2.3522,-2.3543,-2.3568,-2.36,-2.3617,-2.3656,-2.3677,-2.3708,-2.3702,-2.3664,-2.3783,-2.373,-2.3786,-2.3786,-2.3814,-2.3813,-2.3977,-2.3826,-2.3826,-2.3825,-2.3825,0,-2.3429,-2.349,-2.3483,-2.3525,-2.3593,-2.358,-2.3648,-2.3656,-2.3675,-2.3719,-2.3693,-2.3734,-2.3723,-2.3764,-2.376,-2.3827,-2.3836,-2.3839,-2.3837,-2.3842,-2.3842,-2.3859,-2.3852,-2.383,-2.3829,-2.3828,-2.3827,0,-2.3554,-2.3551,-2.3623,-2.364,-2.3646,-2.3696,-2.3711,-2.3751,-2.3752,-2.3807,-2.3819,-2.3822,-2.3869,-2.3865,-2.3918,-2.3915,-2.3998,-2.3987,-2.399,-2.3989,-2.4046,-2.4041,-2.4228,-2.4252,-2.4083,-2.4085,-2.4086,0,-2.3636,-2.3682,-2.3705,-2.3732,-2.3746,-2.3789,-2.3815,-2.3804,-2.3832,-2.3863,-2.3899,-2.3943,-2.3979,-2.4055,-2.4062,-2.4102,-2.4093,-2.4155,-2.4099,-2.4103,-2.4096,-2.4094,-2.4099,-2.4167,-2.4169,-2.4171,-2.4172,0,-2.3782,-2.3778,-2.3816,-2.3854,-2.3886,-2.3915,-2.3941,-2.3965,-2.3956,-2.3989,-2.4037,-2.4064,-2.4117,-2.4162,-2.4201,-2.4213,-2.4192,-2.4189,-2.4205,-2.4211,-2.4212,-2.4214,-2.4023,-2.4186,-2.4184,-2.4183,-2.4182,-2.4182,-2.3889,-2.3929,-2.3952,-2.3995,-2.4014,-2.4039,-2.4077,-2.4083,-2.4122,-2.4165,-2.4156,-2.421,-2.4233,-2.4282,-2.4298,-2.434,-2.4318,-2.434,-2.4346,-2.4352,-2.4359,-2.4204,-2.4347,-2.4347,-2.4346,-2.4346,-2.4346,0,-2.4036,-2.4048,-2.4088,-2.4126,-2.416,-2.4136,-2.4164,-2.4194,-2.4242,-2.4265,-2.43,-2.4354,-2.4398,-2.4408,-2.4449,-2.4481,-2.4472,-2.4492,-2.4491,-2.4495,-2.4376,-2.436,-2.4499,-2.4499,-2.4499,-2.4499,-2.4499,-2.4499,-2.4116,-2.4183,-2.4182,-2.4259,-2.4271,-2.4323,-2.4341,-2.4365,-2.4383,-2.4445,-2.4481,-2.4487,-2.4505,-2.4548,-2.4586,-2.4588,-2.4605,-2.463,-2.4628,-2.4518,-2.4503,-2.4488,-2.4473,-2.4633,-2.4633,-2.4743,-2.4744,-2.4745]},{"header":{"parameterUnit":"m.s-1","parameterCategory":1,"la1":30.2991,"la2":30.254,"lo1":-89.0895,"lo2":-89.0444,"dy":0.0017,"dx":0.0017,"nx":28,"ny":28,"refTime":"2023-11-11T03:00:00:Z","depth":0,"parameterNumber":3,"parameterNumberName":"V-component_of_WINDS"},"data":[0,0,0,0,0,0,0,0,0,0,0,0,0,0,0,0,0,0,0,0,0,0,0,0,0,0,0,0,0,0,0,0,0,0,0,0,0,0,0,0,0,0,0,0,0,0,0,0,0,0,0,0,0,0,0,0,0,0,-4.7216,-4.7216,0,-4.7245,-4.7246,-4.7246,-4.7194,-4.7192,-4.719,-4.7189,-4.7215,-4.7217,-4.722,0,0,0,0,0,0,0,0,0,0,0,0,0,-4.7109,-4.7112,-4.7216,-4.7216,-4.7216,-4.7245,-4.7246,-4.7246,-4.7194,-4.7192,-4.719,-4.7188,-4.7214,-4.7217,-4.722,0,0,0,0,0,0,0,0,0,0,0,0,0,-4.7149,-4.7112,-4.7216,-4.7194,-4.7192,-4.7245,-4.7246,-4.7246,-4.7195,-4.7192,-4.7189,-4.7187,-4.7214,-4.7217,-4.722,-4.7294,0,0,-4.7231,-4.7233,0,0,0,0,0,0,0,0,-4.7147,-4.7153,-4.7197,-4.7196,-4.7194,-4.7213,-4.7218,-4.7262,-4.7195,-4.7194,-4.7189,-4.7186,-4.7216,-4.722,-4.7231,-4.7296,-4.7297,-4.7231,-4.7233,-4.7235,-4.7236,0,0,0,0,0,0,0,-4.7144,-4.7151,-4.7227,-4.7197,-4.7196,-4.7181,-4.7184,-4.7226,-4.7219,-4.7194,-4.719,-4.7194,-4.7215,-4.7227,-4.7231,-4.7297,-4.7231,-4.7234,-4.7237,-4.7238,-4.7424,-4.7426,0,0,0,0,0,0,-4.7145,-4.7149,-4.7226,-4.7228,-4.7164,-4.7186,-4.7189,-4.721,-4.7219,-4.7218,-4.7197,-4.7192,-4.7223,-4.7227,-4.7232,-4.7319,-4.7235,-4.7238,-4.724,-4.7421,-4.7424,-4.7427,0,0,0,0,0,0,-4.7143,-4.7152,-4.7225,-4.7188,-4.7196,-4.719,-4.7214,-4.7212,-4.7224,-4.7221,-4.7219,-4.7211,-4.7221,-4.7227,-4.7279,-4.7319,-4.724,-4.7243,-4.7418,-4.7422,-4.7426,-4.7494,0,0,0,0,0,0,-4.714,-4.7152,-4.7181,-4.7189,-4.7198,-4.7274,-4.7217,-4.7214,-4.7231,-4.7225,-4.7234,-4.7233,-4.7219,-4.7274,-4.7283,-4.7322,-4.7246,-4.7414,-4.742,-4.7425,-4.7488,-4.75,-4.751,0,0,0,0,0,-4.7136,-4.7198,-4.7182,-4.7192,-4.7235,-4.7276,-4.7281,-4.7266,-4.7234,-4.7263,-4.7261,-4.7232,-4.7313,-4.728,-4.7289,-4.733,-4.7411,-4.7418,-4.7424,-4.7483,-4.7498,-4.751,0,0,0,0,0,0,-4.7192,-4.7198,-4.7181,-4.7248,-4.7262,-4.7267,-4.7303,-4.7282,-4.7304,-4.7297,-4.7276,-4.7278,-4.7335,-4.7338,-4.7301,-4.7402,-4.7357,-4.7365,-4.7399,-4.7412,-4.7423,-4.7421,-4.7249,0,0,0,0,0,-4.7213,-4.7248,-4.725,-4.7308,-4.7317,-4.7309,-4.7326,-4.7313,-4.7326,-4.7332,-4.7333,-4.7346,-4.7374,-4.7393,-4.7419,-4.7488,-4.7489,-4.7521,-4.7532,-4.7541,-4.7548,-4.7585,-4.7599,-4.7448,-4.7448,-4.7448,0,0,-4.7255,-4.7262,-4.7285,-4.732,-4.7329,-4.7365,-4.7314,-4.7353,-4.7379,-4.7337,-4.7387,-4.7389,-4.7402,-4.7463,-4.749,-4.7467,-4.759,-4.7549,-4.7556,-4.7559,-4.7593,-4.7607,-4.762,-4.7453,-4.7452,-4.7451,0,0,-4.7349,-4.7359,-4.7409,-4.742,-4.7435,-4.743,-4.7442,-4.745,-4.745,-4.7501,-4.747,-4.7499,-4.7549,-4.7559,-4.7571,-4.767,-4.7645,-4.7679,-4.7736,-4.7772,-4.7784,-4.7794,-4.7829,-4.7842,-4.7686,-4.7687,-4.7687,0,-4.7399,-4.7453,-4.7436,-4.7478,-4.7494,-4.746,-4.7509,-4.752,-4.7542,-4.7553,-4.7528,-4.7589,-4.7595,-4.7658,-4.7683,-4.7693,-4.7706,-4.7678,-4.7784,-4.7794,-4.7803,-4.7836,-4.785,-4.7691,-4.769,-4.769,-4.7689,0,-4.7513,-4.755,-4.7588,-4.7613,-4.7632,-4.7678,-4.7667,-4.7689,-4.7674,-4.7671,-4.7723,-4.7729,-4.7755,-4.7769,-4.7755,-4.783,-4.7816,-4.7787,-4.7741,-4.7822,-4.7853,-4.7865,-4.7696,-4.7695,-4.7694,-4.7693,0,0,-4.7643,-4.7659,-4.7673,-4.7684,-4.7699,-4.7727,-4.777,-4.7797,-4.7816,-4.7833,-4.7868,-4.7911,-4.7885,-4.7898,-4.7884,-4.7916,-4.7994,-4.7883,-4.7883,-4.7904,-4.8077,-4.8098,-4.8113,-4.7977,-4.798,-4.7982,-4.8076,0,-4.7737,-4.7814,-4.7801,-4.7874,-4.7908,-4.7876,-4.7913,-4.7926,-4.7924,-4.7951,-4.7948,-4.7979,-4.7943,-4.7951,-4.798,-4.7978,-4.8028,-4.7971,-4.8009,-4.801,-4.8007,-4.8129,-4.8152,-4.8241,-4.8088,-4.809,-4.8091,0,-4.7857,-4.788,-4.7958,-4.7968,-4.7981,-4.8015,-4.8039,-4.8066,-4.8079,-4.8076,-4.8091,-4.8072,-4.8113,-4.8067,-4.8124,-4.8086,-4.81,-4.8101,-4.8104,-4.8107,-4.8056,-4.8135,-4.8269,-4.8282,-4.811,-4.8109,-4.8107,0,-4.7945,-4.7995,-4.8048,-4.8058,-4.807,-4.8095,-4.8101,-4.8112,-4.8129,-4.815,-4.8161,-4.8185,-4.8199,-4.8218,-4.8205,-4.8173,-4.8264,-4.8217,-4.8261,-4.8262,-4.8282,-4.8281,-4.8419,-4.8292,-4.8292,-4.8291,-4.8291,0,-4.8051,-4.8099,-4.8087,-4.812,-4.8173,-4.8157,-4.8209,-4.8211,-4.8221,-4.8252,-4.8226,-4.8255,-4.8237,-4.8265,-4.8255,-4.8303,-4.8309,-4.8307,-4.8303,-4.8309,-4.831,-4.8318,-4.8311,-4.8295,-4.8294,-4.8293,-4.8293,0,-4.8157,-4.8151,-4.8207,-4.8215,-4.8218,-4.8257,-4.8262,-4.8292,-4.8288,-4.8329,-4.8337,-4.8331,-4.8362,-4.8352,-4.8385,-4.8378,-4.844,-4.8428,-4.8436,-4.8433,-4.8478,-4.8474,-4.8627,-4.8646,-4.8507,-4.8508,-4.8509,0,-4.8225,-4.8262,-4.8275,-4.8295,-4.8303,-4.8335,-4.8353,-4.8338,-4.8358,-4.8376,-4.8403,-4.8433,-4.8456,-4.8507,-4.8505,-4.853,-4.8519,-4.8571,-4.8523,-4.8527,-4.852,-4.8518,-4.8521,-4.858,-4.8582,-4.8583,-4.8584,0,-4.8347,-4.8342,-4.837,-4.8397,-4.842,-4.844,-4.8457,-4.8474,-4.846,-4.8484,-4.8516,-4.8534,-4.8569,-4.8598,-4.8621,-4.8626,-4.8603,-4.86,-4.8611,-4.8617,-4.862,-4.8619,-4.8462,-4.8596,-4.8595,-4.8594,-4.8594,-4.8593,-4.8436,-4.8468,-4.8481,-4.8513,-4.8525,-4.8542,-4.8571,-4.8571,-4.8598,-4.8626,-4.8616,-4.8653,-4.8665,-4.8693,-4.8701,-4.873,-4.8709,-4.8726,-4.873,-4.8735,-4.8741,-4.8616,-4.8734,-4.8733,-4.8733,-4.8733,-4.8732,0,-4.8556,-4.8564,-4.8593,-4.8619,-4.8644,-4.8622,-4.864,-4.8662,-4.8696,-4.8709,-4.8732,-4.877,-4.8798,-4.8798,-4.8824,-4.8847,-4.8837,-4.8854,-4.8852,-4.8854,-4.8757,-4.8745,-4.8862,-4.8862,-4.8862,-4.8862,-4.8862,-4.8862,-4.8622,-4.8674,-4.8671,-4.8728,-4.8734,-4.8772,-4.8784,-4.8799,-4.881,-4.8854,-4.8878,-4.8878,-4.8886,-4.8912,-4.8937,-4.8936,-4.8947,-4.8968,-4.8963,-4.8873,-4.886,-4.8848,-4.8836,-4.8971,-4.8971,-4.9057,-4.9058,-4.9059]}]]